Alice, TX

2:09 AM CDT on March 25, 2017 (GMT -0500)
Alice International

Weather History for KALI - August, 2013

Change the Weather History Date:

Saturday, August 24, 2013

  Actual Average Record
Temperature  
Mean Temperature 86 °F -  
Max Temperature 98 °F 93 °F 104 °F (2010)
Min Temperature 75 °F 73 °F 71 °F (2010)
Cooling Degree Days 22    
Growing Degree Days 36 (Base 50)    
Moisture  
Dew Point 73 °F    
Average Humidity 69    
Maximum Humidity 94    
Minimum Humidity 39    
Precipitation  
Precipitation 0.00 in - - ()
Sea Level Pressure  
Sea Level Pressure 29.95 in    
Wind  
Wind Speed 6 mph (ENE)    
Max Wind Speed 18 mph    
Max Gust Speed 28 mph    
Visibility 10 miles    
Events      
Averages and records for this station are not official NWS values.
T = Trace of Precipitation, MM = Missing Value Source: NWS Daily Summary

Daily Weather History Graph

Daily Weather History Graph

Search for Another Location

Airport or City:

Trip Planner

Search our weather history database for the weather conditions in past years. The results will help you decide how hot, cold, wet, or windy it might be!

Date:

Astronomy

Aug. 24, 2013 Rise Set
Actual Time 7:07 AM CDT 8:01 PM CDT
Civil Twilight 6:43 AM CDT 8:25 PM CDT
Nautical Twilight 6:14 AM CDT 8:53 PM CDT
Astronomical Twilight 5:45 AM CDT 9:22 PM CDT
Moon 10:24 PM CDT (8/24) 10:42 AM CDT (8/24)
Length of Visible Light 13h 42m
Length of Day
12h 53m
Waning Gibbous, 84% of the Moon is Illuminated
Aug 24
Waning Gibbous
Aug 28
Last Quarter
Sep 5
New
Sep 12
First Quarter
Sep 19
Full

Hourly Weather History & Observations

Time (CDT) Temp. Heat Index Dew Point Humidity Pressure Visibility Wind Dir Wind Speed Gust Speed Precip Events Conditions
12:53 AM 78.1 °F - 75.0 °F 90% 29.95 in 10.0 mi Calm Calm - N/A   Clear
1:53 AM 78.1 °F - 75.0 °F 90% 29.94 in 10.0 mi Calm Calm - N/A   Clear
2:53 AM 75.9 °F - 73.9 °F 94% 29.93 in 10.0 mi Calm Calm - N/A   Clear
3:53 AM 75.9 °F - 73.0 °F 91% 29.93 in 10.0 mi NNE 3.5 mph - N/A   Clear
4:53 AM 75.0 °F - 73.0 °F 94% 29.93 in 10.0 mi NNW 4.6 mph - N/A   Partly Cloudy
5:53 AM 75.0 °F - 73.0 °F 94% 29.94 in 10.0 mi NNW 3.5 mph - N/A   Partly Cloudy
6:53 AM 75.0 °F - 73.0 °F 94% 29.95 in 10.0 mi North 4.6 mph - N/A   Clear
7:53 AM 75.9 °F - 73.9 °F 94% 29.97 in 10.0 mi North 4.6 mph - N/A   Clear
8:53 AM 82.0 °F 89.4 °F 75.9 °F 82% 29.98 in 10.0 mi NNE 8.1 mph - N/A   Scattered Clouds
9:53 AM 86.0 °F 95.1 °F 75.0 °F 70% 29.99 in 10.0 mi NE 6.9 mph - N/A   Mostly Cloudy
10:22 AM 87.8 °F 97.6 °F 75.2 °F 66% 30.00 in 10.0 mi North 9.2 mph - N/A   Mostly Cloudy
10:53 AM 89.1 °F 97.0 °F 73.0 °F 59% 29.99 in 10.0 mi NNE 6.9 mph - N/A   Mostly Cloudy
11:05 AM 89.6 °F 98.2 °F 73.4 °F 59% 30.00 in 10.0 mi Variable 5.8 mph - N/A   Mostly Cloudy
11:53 AM 91.9 °F 99.5 °F 72.0 °F 52% 29.99 in 10.0 mi NE 11.5 mph 17.3 mph N/A   Mostly Cloudy
12:53 PM 91.9 °F 98.4 °F 71.1 °F 50% 29.98 in 10.0 mi ENE 10.4 mph 20.7 mph N/A   Overcast
1:53 PM 98.1 °F 104.4 °F 69.1 °F 39% 29.96 in 10.0 mi East 15.0 mph 24.2 mph N/A   Scattered Clouds
2:53 PM 97.0 °F 102.8 °F 69.1 °F 40% 29.95 in 10.0 mi ENE 17.3 mph 27.6 mph N/A   Clear
3:53 PM 97.0 °F 102.8 °F 69.1 °F 40% 29.92 in 10.0 mi ENE 18.4 mph 26.5 mph N/A   Partly Cloudy
4:53 PM 96.1 °F 101.6 °F 69.1 °F 41% 29.91 in 10.0 mi East 18.4 mph 24.2 mph N/A   Clear
5:53 PM 91.9 °F 95.9 °F 68.0 °F 45% 29.91 in 10.0 mi ESE 17.3 mph 27.6 mph N/A   Clear
6:53 PM 89.1 °F 94.1 °F 70.0 °F 53% 29.91 in 10.0 mi East 13.8 mph - N/A   Clear
7:53 PM 87.1 °F 93.6 °F 72.0 °F 61% 29.92 in 10.0 mi ESE 12.7 mph 18.4 mph N/A   Clear
8:53 PM 84.9 °F 91.4 °F 73.0 °F 67% 29.94 in 10.0 mi ESE 9.2 mph - N/A   Clear
9:53 PM 82.9 °F 89.4 °F 73.9 °F 74% 29.97 in 10.0 mi ESE 9.2 mph - N/A   Partly Cloudy
10:53 PM 81.0 °F 86.7 °F 75.0 °F 82% 29.98 in 10.0 mi ESE 4.6 mph - N/A   Clear
11:53 PM 80.1 °F 85.1 °F 75.0 °F 85% 29.98 in 10.0 mi SE 3.5 mph - N/A   Clear